HORS 4 (RS82S)

Last updated on Thu Oct 30 2025 00:03:10 GMT+0000 (Coordinated Universal Time)

1 61754U 24199V 25302.57386367 .00032060 00000+0 77748-3 0 9991 2 61754 97.3271 171.3192 0011197 48.9849 311.2364 15.40930641101925
UTC large
Height (km)
Speed (km/s)
/
Latitude / Longitude
Inclination (degrees)
Orbital Period (minutes)
Azimuth
Elevation
Range (km)
Doppler Factor

Next 0 passes for location: London (51.5072 / 0.1276)

Sorry there are no passes over London.